カタログに戻る

QIANFAN-114

運用中通信PO
NORAD 68641·PAYLOAD·🇨🇳 China

打ち上げ Apr 7, 2026 から Wenchang Space Launch Site

Loading…

次のパス (今後24時間)

TLE

最新Source: Space-Track

元期: Sep 14, 2026, 20:16 UTC

1 68641U 26075F   26257.84475867  .00000070  00000-0  89694-4 0  9993
2 68641  88.9872 311.8675 0002257  97.7854 262.3553 13.51027529 21909

AllMySatでQIANFAN-114をリアルタイム追跡

Download on the App Store